Station History

Weather Underground - logo

Station Historical Data
Daily Summary for August 16, 2017 Units:  English    Metric   Both
« Previous Day
Next Day »
Daily Weekly Monthly Yearly Custom
  High: Low: Average:
Temperature: 90.0 °F 61.9 °F 76.6 °F
Dew Point: 65.8 °F 58.3 °F 61.9 °F
Humidity: 88 % 39 % 63 %
Wind Speed: 6.0 mph 0.0 mph 1.4 mph
Wind Gust: 6.0 mph - -
Wind:- - SW
Pressure: 29.90 in 29.80 in -
Precipitation: 0.00 in    
Historical Graphs
 
 
Tabular Data for August 16, 2017
Time Temperature Dew Point Pressure Wind Wind Speed Wind Gust Humidity Rainfall Rate (Hourly)
00:02 73.3 °F 61.7 °F 29.80 in Calm     67 % 0.00 in
00:07 73.1 °F 61.1 °F 29.80 in Calm     66 % 0.00 in
00:12 72.7 °F 61.5 °F 29.80 in Calm     68 % 0.00 in
00:17 72.4 °F 61.7 °F 29.80 in Calm     69 % 0.00 in
00:22 71.9 °F 62.0 °F 29.81 in Calm     71 % 0.00 in
00:27 71.6 °F 62.1 °F 29.81 in Calm     72 % 0.00 in
00:32 71.6 °F 61.7 °F 29.81 in Calm     71 % 0.00 in
00:37 71.6 °F 61.7 °F 29.80 in Calm     71 % 0.00 in
00:43 71.6 °F 61.3 °F 29.80 in Calm     70 % 0.00 in
00:48 71.5 °F 61.6 °F 29.80 in Calm     71 % 0.00 in
00:53 71.2 °F 61.3 °F 29.81 in Calm     71 % 0.00 in
00:58 71.0 °F 61.1 °F 29.81 in Calm     71 % 0.00 in
01:03 70.9 °F 61.0 °F 29.81 in Calm     71 % 0.00 in
01:08 70.7 °F 60.8 °F 29.81 in Calm     71 % 0.00 in
01:13 70.6 °F 60.7 °F 29.81 in Calm     71 % 0.00 in
01:18 70.6 °F 60.7 °F 29.81 in Calm     71 % 0.00 in
01:23 70.4 °F 60.9 °F 29.81 in Calm     72 % 0.00 in
01:28 70.1 °F 60.7 °F 29.80 in Calm     72 % 0.00 in
01:33 69.6 °F 60.9 °F 29.80 in Calm     74 % 0.00 in
01:38 69.0 °F 60.4 °F 29.80 in Calm     74 % 0.00 in
01:43 68.6 °F 60.4 °F 29.80 in Calm     75 % 0.00 in
01:48 68.5 °F 61.0 °F 29.81 in Calm     77 % 0.00 in
01:53 68.4 °F 60.9 °F 29.81 in Calm     77 % 0.00 in
01:58 68.2 °F 61.1 °F 29.81 in Calm     78 % 0.00 in
02:03 68.1 °F 60.6 °F 29.81 in Calm     77 % 0.00 in
02:08 68.1 °F 60.6 °F 29.81 in Calm     77 % 0.00 in
02:13 68.1 °F 61.0 °F 29.81 in Calm     78 % 0.00 in
02:18 67.9 °F 61.1 °F 29.81 in Calm     79 % 0.00 in
02:23 67.6 °F 60.1 °F 29.81 in Calm     77 % 0.00 in
02:28 67.7 °F 59.9 °F 29.81 in Calm     76 % 0.00 in
02:33 67.8 °F 59.6 °F 29.81 in Calm     75 % 0.00 in
02:38 67.9 °F 59.3 °F 29.82 in Calm     74 % 0.00 in
02:43 67.8 °F 59.2 °F 29.82 in Calm     74 % 0.00 in
02:49 67.5 °F 59.3 °F 29.82 in Calm     75 % 0.00 in
02:54 67.3 °F 59.5 °F 29.82 in Calm     76 % 0.00 in
02:59 67.0 °F 59.2 °F 29.82 in SSE 1.2 mph 1.2 mph 76 % 0.00 in
03:04 66.7 °F 59.6 °F 29.82 in Calm     78 % 0.00 in
03:09 66.4 °F 59.7 °F 29.82 in Calm     79 % 0.00 in
03:14 66.2 °F 59.8 °F 29.82 in Calm     80 % 0.00 in
03:19 65.9 °F 59.9 °F 29.82 in Calm     81 % 0.00 in
03:24 65.6 °F 60.0 °F 29.82 in Calm     82 % 0.00 in
03:29 65.5 °F 60.2 °F 29.82 in SE 1.2 mph 1.2 mph 83 % 0.00 in
03:34 65.4 °F 60.1 °F 29.83 in Calm     83 % 0.00 in
03:39 65.1 °F 60.1 °F 29.83 in Calm     84 % 0.00 in
03:44 65.1 °F 60.1 °F 29.82 in Calm     84 % 0.00 in
03:49 65.0 °F 60.0 °F 29.82 in Calm     84 % 0.00 in
03:54 64.9 °F 60.3 °F 29.82 in Calm     85 % 0.00 in
03:59 64.8 °F 60.2 °F 29.82 in Calm     85 % 0.00 in
04:00 64.8 °F 60.2 °F 29.82 in Calm     85 % 0.00 in
04:05 64.8 °F 60.2 °F 29.83 in Calm     85 % 0.00 in
04:10 64.7 °F 59.8 °F 29.83 in Calm     84 % 0.00 in
04:15 64.7 °F 59.8 °F 29.83 in Calm     84 % 0.00 in
04:20 64.7 °F 59.8 °F 29.83 in Calm     84 % 0.00 in
04:25 64.7 °F 59.8 °F 29.83 in Calm     84 % 0.00 in
04:30 64.7 °F 59.8 °F 29.83 in Calm     84 % 0.00 in
04:35 64.5 °F 59.6 °F 29.83 in Calm     84 % 0.00 in
04:40 64.4 °F 59.5 °F 29.83 in Calm     84 % 0.00 in
04:45 64.4 °F 59.5 °F 29.83 in Calm     84 % 0.00 in
04:50 64.3 °F 59.4 °F 29.83 in Calm     84 % 0.00 in
04:55 64.2 °F 59.6 °F 29.84 in Calm     85 % 0.00 in
05:00 64.0 °F 59.4 °F 29.84 in Calm     85 % 0.00 in
05:05 63.9 °F 59.3 °F 29.84 in Calm     85 % 0.00 in
05:15 63.7 °F 59.4 °F 29.84 in Calm     86 % 0.00 in
05:20 63.6 °F 59.3 °F 29.84 in Calm     86 % 0.00 in
05:25 63.4 °F 59.1 °F 29.84 in Calm     86 % 0.00 in
05:30 63.4 °F 59.1 °F 29.85 in SE 1.2 mph   86 % 0.00 in
05:35 63.3 °F 59.4 °F 29.85 in SE 1.2 mph 1.2 mph 87 % 0.00 in
05:40 63.0 °F 59.1 °F 29.85 in Calm     87 % 0.00 in
05:45 62.7 °F 58.8 °F 29.85 in SE 1.2 mph 1.2 mph 87 % 0.00 in
05:50 62.5 °F 58.6 °F 29.85 in Calm     87 % 0.00 in
05:55 62.4 °F 58.5 °F 29.85 in Calm     87 % 0.00 in
06:00 62.3 °F 58.7 °F 29.85 in Calm     88 % 0.00 in
06:05 62.2 °F 58.6 °F 29.86 in Calm     88 % 0.00 in
06:10 62.1 °F 58.5 °F 29.86 in Calm     88 % 0.00 in
06:15 62.1 °F 58.5 °F 29.86 in Calm     88 % 0.00 in
06:20 62.0 °F 58.4 °F 29.86 in Calm     88 % 0.00 in
06:21 62.0 °F 58.4 °F 29.86 in Calm     88 % 0.00 in
06:26 62.0 °F 58.4 °F 29.86 in Calm   0.1 mph 88 % 0.00 in
06:30 61.9 °F 58.3 °F 29.87 in SE 1.2 mph   88 % 0.00 in
06:36 61.9 °F 58.3 °F 29.86 in SE 1.2 mph 1.2 mph 88 % 0.00 in
06:41 62.0 °F 58.4 °F 29.87 in Calm     88 % 0.00 in
06:46 62.1 °F 58.5 °F 29.87 in Calm     88 % 0.00 in
06:51 62.2 °F 58.6 °F 29.87 in SE 1.2 mph   88 % 0.00 in
06:56 62.5 °F 58.9 °F 29.88 in SE 1.2 mph 1.2 mph 88 % 0.00 in
07:01 62.6 °F 59.0 °F 29.88 in SE 1.2 mph 1.2 mph 88 % 0.00 in
07:06 62.8 °F 59.2 °F 29.88 in SE 2.3 mph 2.3 mph 88 % 0.00 in
07:11 63.0 °F 59.1 °F 29.88 in SE 1.2 mph 1.2 mph 87 % 0.00 in
07:16 63.3 °F 59.4 °F 29.88 in SE 3.5 mph 3.5 mph 87 % 0.00 in
07:21 63.5 °F 59.6 °F 29.89 in SE 1.2 mph 1.2 mph 87 % 0.00 in
07:26 63.8 °F 59.5 °F 29.89 in SE 2.3 mph 2.3 mph 86 % 0.00 in
07:31 64.3 °F 59.7 °F 29.89 in ESE 2.3 mph 2.3 mph 85 % 0.00 in
07:36 65.1 °F 60.1 °F 29.89 in ESE 3.5 mph 3.5 mph 84 % 0.00 in
07:41 65.8 °F 60.2 °F 29.90 in SSE 1.2 mph 1.2 mph 82 % 0.00 in
07:46 66.4 °F 60.4 °F 29.90 in SSE 3.5 mph 3.5 mph 81 % 0.00 in
07:51 66.8 °F 60.1 °F 29.90 in East 3.5 mph 3.5 mph 79 % 0.00 in
07:56 67.2 °F 60.5 °F 29.90 in East 2.3 mph 2.3 mph 79 % 0.00 in
08:02 68.0 °F 60.5 °F 29.90 in East 1.2 mph   77 % 0.00 in
08:07 68.5 °F 60.6 °F 29.90 in SE 3.5 mph 3.5 mph 76 % 0.00 in
08:12 68.9 °F 60.6 °F 29.90 in East 2.3 mph 2.3 mph 75 % 0.00 in
08:17 69.5 °F 60.5 °F 29.90 in East 2.0 mph 2.0 mph 73 % 0.00 in
08:22 70.1 °F 60.7 °F 29.90 in East 2.3 mph 2.3 mph 72 % 0.00 in
08:27 70.4 °F 60.9 °F 29.90 in SSE 2.3 mph 2.3 mph 72 % 0.00 in
08:32 70.6 °F 60.7 °F 29.90 in South 2.3 mph 2.3 mph 71 % 0.00 in
08:37 70.9 °F 61.0 °F 29.90 in SE 3.5 mph 3.5 mph 71 % 0.00 in
08:42 71.2 °F 60.5 °F 29.90 in SSE 2.3 mph 2.3 mph 69 % 0.00 in
08:47 71.5 °F 60.8 °F 29.90 in SE 1.2 mph 1.2 mph 69 % 0.00 in
08:52 71.6 °F 60.5 °F 29.90 in SE 3.5 mph 3.5 mph 68 % 0.00 in
08:57 72.0 °F 60.9 °F 29.90 in SE 3.5 mph 3.5 mph 68 % 0.00 in
09:02 72.4 °F 60.8 °F 29.90 in SSE 3.5 mph 3.5 mph 67 % 0.00 in
09:07 72.8 °F 60.8 °F 29.90 in South 2.3 mph 2.3 mph 66 % 0.00 in
09:12 73.2 °F 60.7 °F 29.90 in SE 3.5 mph 3.5 mph 65 % 0.00 in
09:17 73.6 °F 60.2 °F 29.90 in SSE 2.3 mph 2.3 mph 63 % 0.00 in
09:22 74.1 °F 60.7 °F 29.90 in ESE 2.3 mph 2.3 mph 63 % 0.00 in
09:27 74.4 °F 61.0 °F 29.90 in SE 3.5 mph 3.5 mph 63 % 0.00 in
09:32 74.5 °F 60.6 °F 29.90 in SE 4.0 mph 4.0 mph 62 % 0.00 in
09:37 74.7 °F 61.3 °F 29.90 in SE 3.0 mph 3.0 mph 63 % 0.00 in
09:42 74.9 °F 61.0 °F 29.90 in SE 5.8 mph 5.8 mph 62 % 0.00 in
09:47 75.3 °F 61.4 °F 29.90 in SE 3.5 mph 3.5 mph 62 % 0.00 in
09:52 75.8 °F 61.8 °F 29.90 in SSE 3.5 mph 3.5 mph 62 % 0.00 in
09:57 76.6 °F 62.1 °F 29.90 in SSE 1.2 mph 1.2 mph 61 % 0.00 in
10:02 77.2 °F 61.8 °F 29.90 in SSE 2.0 mph 2.0 mph 59 % 0.00 in
10:07 77.4 °F 61.5 °F 29.90 in South 3.5 mph 3.5 mph 58 % 0.00 in
10:12 77.5 °F 61.6 °F 29.90 in South 3.5 mph 3.5 mph 58 % 0.00 in
10:17 77.5 °F 61.6 °F 29.90 in SSE 3.5 mph 3.5 mph 58 % 0.00 in
10:22 77.7 °F 61.7 °F 29.90 in SSE 3.5 mph 3.5 mph 58 % 0.00 in
10:27 77.7 °F 61.7 °F 29.90 in NW 3.5 mph 3.5 mph 58 % 0.00 in
10:32 77.8 °F 61.8 °F 29.90 in SSW 4.6 mph 4.6 mph 58 % 0.00 in
10:37 78.2 °F 61.7 °F 29.90 in SE 3.5 mph 3.5 mph 57 % 0.00 in
10:42 78.6 °F 62.1 °F 29.90 in SSE 5.0 mph 5.0 mph 57 % 0.00 in
10:47 78.8 °F 62.8 °F 29.90 in SSW 2.3 mph 2.3 mph 58 % 0.00 in
10:52 78.8 °F 62.8 °F 29.90 in SSE 2.3 mph 2.3 mph 58 % 0.00 in
10:57 79.2 °F 62.7 °F 29.90 in SE 6.0 mph 6.0 mph 57 % 0.00 in
11:02 79.5 °F 62.9 °F 29.89 in NNW 2.3 mph 2.3 mph 57 % 0.00 in
11:07 79.4 °F 61.8 °F 29.89 in SSE 4.6 mph 4.6 mph 55 % 0.00 in
11:12 79.2 °F 63.6 °F 29.89 in SE 1.2 mph   59 % 0.00 in
11:17 79.9 °F 62.3 °F 29.89 in SSE 3.5 mph 3.5 mph 55 % 0.00 in
11:22 80.4 °F 62.8 °F 29.89 in East 3.5 mph 3.5 mph 55 % 0.00 in
11:27 80.7 °F 62.5 °F 29.89 in NNW 3.5 mph 3.5 mph 54 % 0.00 in
11:32 80.5 °F 62.3 °F 29.89 in SW 1.2 mph   54 % 0.00 in
11:37 80.5 °F 62.8 °F 29.89 in North 5.8 mph 5.8 mph 55 % 0.00 in
11:42 80.9 °F 63.7 °F 29.89 in NW 1.2 mph 1.2 mph 56 % 0.00 in
11:47 81.0 °F 62.8 °F 29.89 in NNW 3.5 mph 3.5 mph 54 % 0.00 in
11:52 81.1 °F 63.9 °F 29.89 in East 1.2 mph 1.2 mph 56 % 0.00 in
11:57 81.7 °F 64.0 °F 29.89 in SSE 4.0 mph 4.0 mph 55 % 0.00 in
12:02 81.9 °F 63.1 °F 29.89 in ESE 3.5 mph 3.5 mph 53 % 0.00 in
12:03 81.9 °F 62.0 °F 29.89 in East 3.5 mph 3.5 mph 51 % 0.00 in
12:08 81.9 °F 64.7 °F 29.88 in East 1.2 mph   56 % 0.00 in
12:13 83.0 °F 64.1 °F 29.88 in SSE 1.2 mph 1.2 mph 53 % 0.00 in
12:18 83.2 °F 64.3 °F 29.88 in NW 1.2 mph 1.2 mph 53 % 0.00 in
12:23 82.7 °F 64.4 °F 29.88 in South 3.5 mph 3.5 mph 54 % 0.00 in
12:25 83.2 °F 64.8 °F 29.88 in WNW 1.0 mph 1.0 mph 54 % 0.00 in
12:30 83.7 °F 65.3 °F 29.88 in South 1.0 mph 1.0 mph 54 % 0.00 in
12:35 84.1 °F 65.1 °F 29.88 in South 2.3 mph 2.3 mph 53 % 0.00 in
12:40 84.0 °F 64.5 °F 29.88 in NW 1.2 mph 1.2 mph 52 % 0.00 in
12:45 83.7 °F 63.7 °F 29.88 in West 2.3 mph 2.3 mph 51 % 0.00 in
12:50 83.6 °F 64.7 °F 29.88 in Calm   0.4 mph 53 % 0.00 in
12:56 84.4 °F 63.7 °F 29.88 in West 1.2 mph   50 % 0.00 in
13:01 84.6 °F 63.9 °F 29.88 in NNW 3.5 mph 3.5 mph 50 % 0.00 in
13:06 84.5 °F 63.8 °F 29.87 in NNW 1.2 mph 1.2 mph 50 % 0.00 in
13:11 85.2 °F 64.5 °F 29.87 in NNW 3.5 mph 3.5 mph 50 % 0.00 in
13:16 85.2 °F 64.5 °F 29.87 in East 2.0 mph 2.0 mph 50 % 0.00 in
13:20 85.4 °F 65.2 °F 29.87 in NW 1.2 mph 1.2 mph 51 % 0.00 in
13:26 85.6 °F 63.1 °F 29.87 in NW 1.2 mph 1.2 mph 47 % 0.00 in
13:31 85.4 °F 62.9 °F 29.86 in NW 2.3 mph 2.3 mph 47 % 0.00 in
13:36 85.4 °F 63.5 °F 29.86 in Calm     48 % 0.00 in
13:41 85.9 °F 62.7 °F 29.86 in WNW 1.2 mph 1.2 mph 46 % 0.00 in
13:46 85.7 °F 63.1 °F 29.86 in Calm     47 % 0.00 in
13:51 86.0 °F 63.4 °F 29.86 in WNW 1.2 mph 1.2 mph 47 % 0.00 in
13:56 86.3 °F 63.7 °F 29.86 in Calm     47 % 0.00 in
14:01 87.7 °F 64.4 °F 29.85 in NNW 2.3 mph 2.3 mph 46 % 0.00 in
14:06 88.1 °F 64.7 °F 29.85 in SSW 2.3 mph 2.3 mph 46 % 0.00 in
14:11 88.5 °F 63.1 °F 29.85 in WNW 3.5 mph 3.5 mph 43 % 0.00 in
14:16 87.7 °F 63.7 °F 29.85 in North 1.2 mph   45 % 0.00 in
14:21 87.9 °F 63.3 °F 29.85 in NW 3.5 mph 3.5 mph 44 % 0.00 in
14:26 88.0 °F 62.7 °F 29.84 in ENE 2.3 mph 2.3 mph 43 % 0.00 in
14:31 88.1 °F 63.4 °F 29.84 in NW 1.0 mph   44 % 0.00 in
14:36 88.3 °F 64.3 °F 29.84 in NNW 2.3 mph 2.3 mph 45 % 0.00 in
14:41 88.5 °F 63.8 °F 29.84 in WNW 2.3 mph 2.3 mph 44 % 0.00 in
14:46 88.5 °F 62.5 °F 29.84 in WNW 3.5 mph 3.5 mph 42 % 0.00 in
14:51 88.4 °F 62.4 °F 29.83 in WNW 3.5 mph 3.5 mph 42 % 0.00 in
14:56 88.2 °F 62.9 °F 29.83 in WNW 3.5 mph 3.5 mph 43 % 0.00 in
15:01 88.3 °F 62.3 °F 29.83 in NW 4.6 mph 4.6 mph 42 % 0.00 in
15:06 87.9 °F 62.6 °F 29.83 in NNE 3.5 mph 3.5 mph 43 % 0.00 in
15:11 88.0 °F 61.3 °F 29.83 in North 3.5 mph 3.5 mph 41 % 0.00 in
15:16 88.4 °F 62.4 °F 29.83 in NW 3.5 mph 3.5 mph 42 % 0.00 in
15:21 88.5 °F 61.8 °F 29.83 in NNW 3.5 mph 3.5 mph 41 % 0.00 in
15:26 88.6 °F 61.2 °F 29.83 in NW 4.6 mph 4.6 mph 40 % 0.00 in
15:31 88.5 °F 60.4 °F 29.83 in WNW 5.0 mph 5.0 mph 39 % 0.00 in
15:36 88.5 °F 61.1 °F 29.83 in NNW 3.5 mph 3.5 mph 40 % 0.00 in
15:41 88.3 °F 61.6 °F 29.83 in WNW 4.6 mph 4.6 mph 41 % 0.00 in
15:46 88.1 °F 61.4 °F 29.83 in NW 2.3 mph 2.3 mph 41 % 0.00 in
15:47 88.1 °F 62.1 °F 29.83 in West 4.6 mph 4.6 mph 42 % 0.00 in
15:52 88.6 °F 60.5 °F 29.83 in Calm     39 % 0.00 in
15:57 88.6 °F 61.2 °F 29.82 in WNW 3.5 mph 3.5 mph 40 % 0.00 in
16:02 88.3 °F 60.9 °F 29.82 in NW 3.5 mph 3.5 mph 40 % 0.00 in
16:07 88.3 °F 61.6 °F 29.82 in NW 2.3 mph 2.3 mph 41 % 0.00 in
16:12 88.5 °F 61.1 °F 29.82 in NNW 3.5 mph 3.5 mph 40 % 0.00 in
16:17 88.9 °F 62.2 °F 29.82 in ENE 1.2 mph 1.2 mph 41 % 0.00 in
16:22 89.2 °F 61.0 °F 29.82 in NW 3.5 mph 3.5 mph 39 % 0.00 in
16:27 89.4 °F 62.6 °F 29.82 in WSW 1.2 mph 1.2 mph 41 % 0.00 in
16:32 90.0 °F 61.7 °F 29.81 in North 3.5 mph 3.5 mph 39 % 0.00 in
16:37 89.7 °F 62.2 °F 29.81 in NW 3.5 mph 3.5 mph 40 % 0.00 in
16:42 89.5 °F 61.3 °F 29.81 in NW 3.5 mph 3.5 mph 39 % 0.00 in
16:47 89.0 °F 62.2 °F 29.81 in NW 3.5 mph 3.5 mph 41 % 0.00 in
16:52 89.3 °F 63.2 °F 29.81 in NW 3.5 mph 3.5 mph 42 % 0.00 in
16:57 89.4 °F 61.9 °F 29.81 in NW 2.3 mph 2.3 mph 40 % 0.00 in
17:02 89.2 °F 62.4 °F 29.81 in NNW 3.5 mph 3.5 mph 41 % 0.00 in
17:07 89.1 °F 61.6 °F 29.81 in NW 3.0 mph 3.0 mph 40 % 0.00 in
17:12 89.2 °F 61.7 °F 29.81 in WNW 3.5 mph 3.5 mph 40 % 0.00 in
17:17 89.1 °F 62.3 °F 29.81 in NW 3.5 mph 3.5 mph 41 % 0.00 in
17:22 88.9 °F 62.2 °F 29.81 in NW 2.3 mph 2.3 mph 41 % 0.00 in
17:27 89.1 °F 62.3 °F 29.81 in WNW 2.3 mph 2.3 mph 41 % 0.00 in
17:32 89.1 °F 61.6 °F 29.81 in NW 3.5 mph 3.5 mph 40 % 0.00 in
17:37 88.9 °F 62.8 °F 29.81 in North 3.5 mph 3.5 mph 42 % 0.00 in
17:42 88.8 °F 63.4 °F 29.81 in NE 3.5 mph 3.5 mph 43 % 0.00 in
17:47 88.5 °F 62.5 °F 29.81 in WNW 3.5 mph 3.5 mph 42 % 0.00 in
17:52 88.4 °F 63.1 °F 29.81 in WNW 2.3 mph 2.3 mph 43 % 0.00 in
17:57 88.5 °F 63.1 °F 29.81 in NW 2.3 mph 2.3 mph 43 % 0.00 in
18:02 88.4 °F 62.4 °F 29.81 in NW 4.0 mph 4.0 mph 42 % 0.00 in
18:07 88.3 °F 63.0 °F 29.81 in NW 1.2 mph 1.2 mph 43 % 0.00 in
18:13 88.1 °F 62.8 °F 29.81 in NW 5.0 mph 5.0 mph 43 % 0.00 in
18:18 87.9 °F 62.6 °F 29.81 in WNW 3.5 mph 3.5 mph 43 % 0.00 in
18:23 87.7 °F 61.8 °F 29.81 in NW 3.5 mph 3.5 mph 42 % 0.00 in
18:28 87.9 °F 62.6 °F 29.81 in WNW 2.3 mph 2.3 mph 43 % 0.00 in
18:33 87.8 °F 61.9 °F 29.81 in NW 3.5 mph 3.5 mph 42 % 0.00 in
18:38 87.7 °F 61.8 °F 29.81 in NW 1.2 mph 1.2 mph 42 % 0.00 in
18:43 87.2 °F 62.0 °F 29.80 in WNW 2.3 mph 2.3 mph 43 % 0.00 in
18:48 86.8 °F 62.3 °F 29.80 in NW 1.2 mph 1.2 mph 44 % 0.00 in
18:53 86.6 °F 62.1 °F 29.80 in North 1.2 mph 1.2 mph 44 % 0.00 in
18:58 86.3 °F 61.8 °F 29.80 in WNW 1.2 mph 1.2 mph 44 % 0.00 in
19:00 86.2 °F 61.7 °F 29.80 in NW 1.2 mph 1.2 mph 44 % 0.00 in
19:05 85.9 °F 62.1 °F 29.80 in WNW 1.0 mph 1.0 mph 45 % 0.00 in
19:10 85.7 °F 61.9 °F 29.80 in SW 1.2 mph 1.2 mph 45 % 0.00 in
19:15 85.4 °F 61.6 °F 29.80 in Calm     45 % 0.00 in
19:20 85.2 °F 62.1 °F 29.80 in Calm     46 % 0.00 in
19:25 84.8 °F 61.7 °F 29.80 in Calm     46 % 0.00 in
19:30 84.5 °F 62.1 °F 29.80 in Calm     47 % 0.00 in
19:35 84.3 °F 62.5 °F 29.80 in Calm     48 % 0.00 in
19:40 84.0 °F 62.2 °F 29.80 in Calm     48 % 0.00 in
19:45 83.6 °F 62.4 °F 29.80 in Calm     49 % 0.00 in
19:50 83.2 °F 63.2 °F 29.81 in Calm     51 % 0.00 in
19:55 82.8 °F 63.9 °F 29.81 in Calm     53 % 0.00 in
20:00 82.2 °F 63.9 °F 29.81 in Calm     54 % 0.00 in
20:05 81.8 °F 64.6 °F 29.81 in Calm     56 % 0.00 in
20:10 81.3 °F 64.6 °F 29.81 in Calm     57 % 0.00 in
20:15 80.9 °F 64.2 °F 29.81 in Calm     57 % 0.00 in
20:20 80.6 °F 64.9 °F 29.82 in Calm     59 % 0.00 in
20:22 80.4 °F 64.3 °F 29.82 in Calm     58 % 0.00 in
20:27 80.1 °F 65.4 °F 29.82 in Calm     61 % 0.00 in
20:32 79.9 °F 65.2 °F 29.82 in Calm     61 % 0.00 in
20:37 79.7 °F 64.6 °F 29.82 in Calm     60 % 0.00 in
20:42 79.5 °F 64.9 °F 29.82 in Calm     61 % 0.00 in
20:47 79.4 °F 64.8 °F 29.82 in Calm     61 % 0.00 in
20:52 79.3 °F 64.7 °F 29.82 in Calm     61 % 0.00 in
20:57 79.1 °F 65.0 °F 29.83 in Calm     62 % 0.00 in
21:02 78.9 °F 64.8 °F 29.83 in Calm     62 % 0.00 in
21:07 79.0 °F 64.4 °F 29.83 in Calm     61 % 0.00 in
21:12 79.0 °F 63.9 °F 29.84 in Calm     60 % 0.00 in
21:13 79.0 °F 64.4 °F 29.83 in Calm     61 % 0.00 in
21:18 78.8 °F 64.2 °F 29.84 in Calm     61 % 0.00 in
21:23 78.6 °F 65.8 °F 29.84 in Calm     65 % 0.00 in
21:28 78.1 °F 64.5 °F 29.84 in Calm     63 % 0.00 in
21:33 77.8 °F 64.6 °F 29.84 in Calm     64 % 0.00 in
21:38 77.6 °F 64.5 °F 29.85 in Calm     64 % 0.00 in
21:43 77.4 °F 64.3 °F 29.84 in Calm     64 % 0.00 in
21:48 77.6 °F 64.0 °F 29.85 in SE 1.2 mph 1.2 mph 63 % 0.00 in
21:53 77.9 °F 64.3 °F 29.85 in Calm     63 % 0.00 in
21:58 77.8 °F 64.2 °F 29.85 in Calm     63 % 0.00 in
22:03 77.7 °F 64.1 °F 29.85 in Calm     63 % 0.00 in
22:08 77.4 °F 64.7 °F 29.85 in Calm     65 % 0.00 in
22:13 76.9 °F 64.7 °F 29.85 in Calm     66 % 0.00 in
22:18 76.4 °F 65.1 °F 29.86 in Calm     68 % 0.00 in
22:23 76.2 °F 64.4 °F 29.85 in Calm     67 % 0.00 in
22:28 76.1 °F 65.2 °F 29.85 in Calm     69 % 0.00 in
22:33 75.7 °F 64.4 °F 29.86 in Calm     68 % 0.00 in
22:38 75.5 °F 65.4 °F 29.85 in Calm     71 % 0.00 in
22:40 75.4 °F 64.9 °F 29.85 in Calm     70 % 0.00 in
22:45 75.2 °F 65.1 °F 29.85 in Calm     71 % 0.00 in
22:50 75.1 °F 65.1 °F 29.86 in Calm     71 % 0.00 in
22:55 75.0 °F 64.5 °F 29.86 in Calm     70 % 0.00 in
23:00 75.0 °F 64.5 °F 29.86 in Calm     70 % 0.00 in
23:05 74.9 °F 65.3 °F 29.86 in Calm     72 % 0.00 in
23:10 74.8 °F 64.8 °F 29.86 in Calm     71 % 0.00 in
23:15 74.6 °F 64.6 °F 29.86 in Calm     71 % 0.00 in
23:20 74.4 °F 64.8 °F 29.86 in Calm     72 % 0.00 in
23:25 74.3 °F 64.3 °F 29.86 in Calm     71 % 0.00 in
23:30 74.2 °F 64.2 °F 29.86 in Calm     71 % 0.00 in
23:35 74.0 °F 64.4 °F 29.86 in Calm     72 % 0.00 in
23:40 74.1 °F 64.5 °F 29.86 in Calm     72 % 0.00 in
23:45 74.0 °F 64.8 °F 29.85 in Calm     73 % 0.00 in
23:50 73.9 °F 64.7 °F 29.86 in Calm     73 % 0.00 in
23:55 73.8 °F 64.6 °F 29.86 in Calm     73 % 0.00 in
Park Place, Exeter, Tulare County, California, USA
Compliments of Weather Underground - 2.75 mb